Lapse_Rate
6.5 6.3 6.4 6.7 6.8 6.7 6.5 6.6 6.3 5.9 6.0 6.0 5.9 5.8 5.7 5.6 5.5 5.7 5.9 6.1 6.0 6.2 6.2 6.1 6.0 5.8 6.6 6.1 5.0 5.9 6.9 6.8 6.1 6.6 6.7 6.2 6.1 6.2 6.2 6.4 6.6 6.5 6.5
6.7 6.5 6.3 6.4 6.8 6.9 6.6 6.2 6.5 6.7 6.1 5.9 5.7 5.6 5.5 5.1 5.0 5.1 5.2 5.4 5.7 5.8 5.8 6.0 6.0 6.1 6.2 6.1 6.0 6.0 6.5 6.4 6.2 6.3 6.5 6.6 6.7 6.2 6.4 6.6 6.6 6.7 6.4
6.6 6.4 6.3 6.4 6.4 6.5 6.5 6.4 6.5 6.8 6.5 5.6 5.0 4.9 4.9 4.9 4.9 4.9 4.8 4.9 5.0 5.0 5.2 5.2 5.3 5.5 5.8 6.1 6.1 6.0 5.6 5.8 6.4 6.5 6.2 6.5 6.7 7.0 6.1 6.3 6.3 6.7 6.6
6.6 6.5 6.4 6.5 6.6 6.6 6.5 6.4 6.5 6.1 6.1 5.4 4.9 4.9 5.0 5.1 5.1 5.0 5.0 4.9 4.8 4.8 4.9 5.0 4.9 4.9 5.0 5.3 5.6 5.6 5.3 5.3 5.6 5.8 6.1 6.2 6.5 6.5 6.8 6.3 6.2 6.2 6.5
6.2 6.4 6.5 6.6 6.8 6.7 6.5 6.4 6.5 6.2 5.8 5.5 5.2 5.1 5.2 5.2 5.2 5.2 5.1 5.0 4.9 5.0 5.0 4.9 4.9 4.8 4.8 4.9 5.1 5.2 5.2 5.4 5.4 5.8 6.1 5.9 6.0 5.8 6.1 6.2 6.2 6.0 6.1
6.1 6.3 6.5 6.6 6.9 6.9 6.7 6.5 6.5 6.4 5.9 5.6 5.4 5.3 5.3 5.4 5.4 5.5 5.5 5.4 5.2 4.9 4.8 4.8 4.7 4.7 4.7 4.6 4.8 5.1 5.4 5.2 5.4 5.8 6.0 5.9 5.5 5.8 5.4 5.7 5.8 5.8 6.1
6.3 6.4 6.7 6.8 6.6 6.8 6.6 6.4 6.4 6.2 6.1 5.8 5.6 5.6 5.6 5.6 5.6 5.6 5.6 5.5 5.4 5.3 4.9 4.9 5.0 4.8 4.7 4.7 4.8 4.8 5.1 5.2 5.2 5.2 5.2 5.5 5.6 5.5 6.0 5.6 5.9 5.6 5.9
6.6 6.5 6.6 6.6 6.5 6.6 6.6 6.5 6.3 6.3 6.0 5.8 5.8 5.7 5.5 5.5 5.5 5.4 5.4 5.3 5.2 5.1 5.0 4.8 4.8 5.1 5.0 4.9 5.0 5.1 5.2 5.2 5.1 5.2 5.2 5.3 5.6 5.8 5.2 5.9 5.5 5.3 5.5
6.3 6.2 6.3 6.3 6.3 6.3 6.5 6.5 6.5 6.4 6.2 5.9 5.8 5.7 5.6 5.5 5.4 5.4 5.3 5.4 5.5 5.5 5.6 5.4 5.2 5.6 6.1 6.3 5.6 5.6 5.4 5.3 5.5 5.4 5.3 5.2 5.0 4.9 5.1 5.1 5.7 5.4 5.3
5.8 5.8 5.9 5.8 5.9 6.0 5.9 5.8 6.0 6.1 6.0 5.8 5.7 5.7 5.7 5.6 5.5 5.5 5.5 5.5 5.5 5.6 5.8 5.9 5.7 5.6 6.1 6.6 7.2 6.7 6.2 5.9 5.5 5.5 5.3 5.4 5.2 5.0 4.8 5.3 5.0 5.0 5.3
5.5 5.5 5.6 5.6 5.7 5.7 5.7 5.4 5.3 5.3 5.4 5.4 5.4 5.2 5.3 5.4 5.3 5.3 5.3 5.4 5.5 5.6 5.6 5.7 5.9 5.7 5.8 6.4 6.9 7.4 7.2 6.6 6.2 5.8 5.6 5.3 5.2 5.3 4.9 5.4 5.4 5.0 5.0
5.2 5.1 5.2 5.4 5.3 5.4 5.3 5.0 4.8 4.9 5.0 5.1 5.2 5.2 5.2 5.2 5.3 5.2 5.2 5.2 5.3 5.5 5.6 5.6 5.7 5.8 5.7 6.0 6.5 6.9 7.3 7.4 7.2 6.6 5.9 5.7 5.6 5.4 5.4 5.5 5.6 5.7 4.7
5.4 5.1 5.1 5.0 5.0 5.0 4.9 4.7 4.6 4.7 4.8 4.8 4.9 4.8 4.9 5.0 5.0 5.1 5.1 5.2 5.2 5.2 5.5 5.6 5.6 5.8 5.8 5.7 6.0 6.4 6.7 7.2 7.3 7.4 7.2 6.5 5.9 5.9 5.8 5.7 5.6 5.3 5.7
4.9 4.8 4.7 4.7 4.7 4.8 4.7 4.7 4.6 4.6 4.6 4.6 4.6 4.7 4.8 4.7 4.8 4.9 4.9 5.1 5.2 5.2 5.2 5.3 5.5 5.6 6.0 6.0 5.9 6.0 6.2 6.4 6.8 7.0 7.1 7.2 7.0 6.5 6.2 6.4 6.3 6.0 5.7
4.7 4.7 4.8 4.7 4.7 4.8 4.7 4.6 4.5 4.5 4.5 4.6 4.6 4.7 5.0 5.0 4.8 4.8 4.7 5.0 5.1 5.2 5.1 5.3 5.5 5.7 5.9 6.0 6.0 6.1 6.3 6.4 6.3 6.5 6.7 6.9 7.0 7.1 6.9 6.6 6.5 6.5 6.3
5.1 5.2 5.1 5.0 4.8 4.7 4.6 4.5 4.6 4.5 4.5 4.4 4.5 4.6 5.0 5.2 5.3 5.1 4.8 5.0 5.1 5.3 5.3 5.3 5.5 5.9 6.1 5.9 5.9 6.2 6.5 6.4 6.4 6.5 6.6 6.5 6.7 6.8 6.9 7.0 6.9 6.6 6.4
5.5 5.2 5.0 4.9 4.9 4.8 4.7 4.7 4.7 4.6 4.5 4.3 4.3 4.2 4.1 4.5 4.6 5.1 5.1 5.0 5.1 5.2 5.3 5.6 6.2 6.4 6.2 6.0 6.2 6.3 6.5 6.7 6.8 6.7 6.8 6.7 6.7 6.8 6.8 6.8 6.9 6.8 6.7
5.5 5.4 5.2 5.0 4.8 4.8 4.8 4.8 4.8 4.7 4.6 4.5 4.4 4.2 4.2 4.2 4.6 4.8 5.1 5.1 5.3 5.5 5.9 6.6 6.7 6.5 6.4 6.5 6.6 6.6 6.9 7.0 7.1 7.1 7.0 6.9 6.7 6.7 6.9 7.1 6.9 6.8 6.7
5.2 5.1 5.0 5.1 5.1 5.1 5.1 5.0 5.0 4.9 4.8 4.8 4.8 4.6 4.6 4.7 4.8 5.3 5.5 5.5 5.4 5.9 6.6 7.0 6.8 6.8 6.8 7.0 7.0 7.1 7.3 7.3 7.3 7.3 7.2 7.1 7.1 6.8 6.5 6.4 6.8 7.0 7.0
5.8 5.4 5.3 5.2 5.2 5.2 5.3 5.4 5.3 5.1 4.8 4.9 5.0 4.9 5.1 5.2 5.2 5.5 5.8 5.9 6.0 6.6 6.8 7.1 7.1 7.1 7.3 7.4 7.4 7.5 7.5 7.6 7.6 7.6 7.7 7.6 7.5 7.3 7.0 6.8 6.7 6.8 6.8
5.5 5.6 5.5 5.2 5.1 5.1 5.0 4.8 4.6 4.6 4.8 4.9 5.0 5.1 5.2 5.3 5.5 5.6 6.2 6.4 6.7 7.1 6.9 7.4 7.6 7.5 7.5 7.8 7.7 7.7 7.7 7.7 7.7 7.8 7.9 7.9 7.8 7.5 7.2 7.1 6.9 6.6 6.7
5.2 5.3 5.3 5.0 4.7 4.4 4.1 4.0 3.9 4.0 4.3 4.5 4.8 4.9 5.0 5.2 5.7 6.0 6.8 7.1 7.2 7.3 7.1 7.7 7.7 7.6 7.7 7.9 8.1 8.0 8.0 7.9 7.9 7.9 7.9 7.9 8.0 8.0 7.7 7.4 7.0 6.7 6.5
4.9 4.7 4.5 4.2 4.1 4.0 4.0 3.8 3.8 4.0 4.1 4.4 4.7 5.0 5.1 5.5 6.3 6.7 6.9 7.2 7.7 7.5 7.3 7.5 7.6 7.6 7.8 7.8 7.9 8.1 8.1 8.1 8.1 8.0 8.1 8.0 7.9 7.9 7.8 7.6 7.5 7.2 6.8
4.2 4.0 4.0 4.0 3.9 3.8 3.7 3.7 3.9 3.9 4.2 4.7 5.0 5.1 5.6 6.6 7.3 7.5 7.3 7.6 7.5 7.7 6.9 6.7 7.2 7.6 7.7 7.7 7.8 7.9 8.0 8.0 8.0 8.0 8.0 8.0 8.0 7.9 7.8 7.8 7.8 7.7 7.2
4.1 4.0 3.8 3.7 3.6 3.4 3.4 3.5 3.6 3.9 4.1 4.3 4.5 5.1 6.0 6.9 7.9 7.8 7.8 7.7 7.7 7.0 7.1 6.8 6.8 7.1 7.6 7.5 7.6 7.8 7.8 7.8 7.8 7.8 7.8 7.8 7.8 7.8 7.7 7.8 7.8 7.9 7.7
3.5 3.3 3.3 3.4 3.5 3.7 3.7 3.9 3.8 3.7 3.8 4.2 4.7 5.4 6.0 6.7 7.4 7.3 7.3 7.4 7.4 7.2 7.0 6.8 6.7 6.8 7.2 7.2 7.2 7.3 7.4 7.4 7.5 7.6 7.6 7.7 7.7 7.7 7.7 7.7 7.7 7.6 7.4
Wind_Speed
3 5 5 6 6 7 8 6 8 8 9 7 6 7 7 5 12 16 21 20 20 21 17 15 16 17 8 5 8 4 4 6 3 1 4 5 5 6 5 11 12 14 19
5 5 6 6 6 4 6 6 6 7 6 5 4 3 3 4 6 15 18 22 21 21 20 17 16 16 10 11 11 6 5 3 2 2 1 4 5 3 5 5 7 10 16
6 5 7 6 4 5 6 6 6 7 7 10 7 5 4 5 5 8 10 15 21 21 19 18 18 17 12 8 10 10 10 7 4 3 3 3 4 1 3 6 7 9 8
4 4 7 5 4 3 4 6 6 6 7 11 5 7 4 4 4 4 9 12 20 20 19 18 17 16 15 10 9 9 8 9 8 4 6 6 4 4 6 3 4 4 6
6 6 7 6 3 3 3 4 7 6 5 8 6 5 5 2 3 4 7 8 13 17 19 19 16 14 13 14 12 12 12 8 9 6 6 4 3 4 5 10 11 3 2
6 6 5 5 2 1 3 5 6 4 5 6 6 6 6 5 5 5 5 6 6 10 14 17 15 14 13 12 11 13 11 10 10 9 9 7 6 3 2 3 2 3 6
6 5 5 4 3 4 1 1 5 3 3 5 5 5 5 6 6 5 4 7 6 6 9 13 11 12 14 14 16 11 10 11 10 12 9 10 8 8 8 6 7 6 8
5 5 5 1 2 2 4 1 3 3 2 3 3 4 5 3 3 4 3 4 4 5 14 13 12 13 15 13 16 11 8 11 9 12 10 9 8 11 8 9 8 10 9
5 6 6 4 3 3 5 4 3 3 2 2 3 3 3 4 4 5 5 4 8 11 14 15 10 11 13 12 11 5 8 9 9 9 10 8 8 8 8 9 10 13 13
7 6 6 7 5 4 4 5 5 4 3 2 1 1 1 2 4 6 6 6 10 12 12 11 10 9 10 10 9 5 9 10 8 7 11 9 8 9 7 8 8 8 10
8 7 7 7 6 4 4 5 6 5 5 4 3 2 1 1 3 4 5 6 9 11 9 9 8 7 5 6 5 6 7 10 10 9 10 11 10 8 7 7 9 8 9
8 7 7 7 7 7 6 7 6 7 7 6 5 4 3 2 2 4 5 7 7 11 8 8 8 7 6 3 4 5 7 9 10 10 10 11 8 8 8 6 8 8 9
8 7 7 7 7 7 7 7 7 7 7 6 6 5 5 4 5 5 5 7 7 8 8 5 5 6 5 2 2 4 6 7 8 8 9 10 10 8 8 7 8 7 8
8 7 7 8 7 7 8 7 7 6 7 7 7 6 6 7 6 5 5 5 7 5 5 6 6 7 7 5 3 3 5 6 7 9 9 9 10 9 9 8 9 9 9
6 7 8 7 8 8 8 7 7 6 7 7 7 8 7 7 6 6 6 6 4 5 6 5 6 7 5 2 3 4 4 5 6 7 7 8 8 12 9 7 8 9 8
6 8 10 9 8 8 7 6 7 8 7 8 9 8 8 7 7 7 7 6 5 4 4 5 5 5 2 6 6 5 4 5 4 5 5 7 5 7 11 12 12 9 9
6 7 7 7 7 7 7 7 8 8 7 9 11 10 9 8 8 7 7 6 6 4 5 5 5 4 3 11 10 6 3 4 5 5 5 5 6 6 6 9 10 9 10
7 7 6 7 8 6 7 8 8 8 9 11 12 11 10 8 8 8 7 7 5 6 5 6 6 5 5 9 9 4 3 4 5 5 5 5 8 7 13 14 14 13 8
7 6 7 7 8 8 11 9 8 8 8 10 12 14 11 10 10 9 8 6 5 5 6 5 6 6 6 8 10 5 3 4 5 5 6 5 5 9 15 13 15 15 12
15 15 16 14 13 17 16 11 11 9 10 11 12 13 11 11 11 10 8 6 5 6 5 6 6 8 6 10 10 6 3 4 4 5 5 9 9 11 15 10 11 15 14
14 14 14 12 13 15 16 15 14 15 18 16 15 13 12 13 10 6 4 5 6 6 6 6 6 6 6 7 11 9 4 4 3 4 4 4 11 14 13 12 8 11 12
13 14 12 12 13 15 14 14 14 15 16 18 17 16 10 6 5 6 5 6 6 6 6 5 5 4 6 9 10 11 9 7 4 5 4 5 12 15 15 12 13 14 10
7 9 9 11 11 12 12 13 15 15 15 14 15 14 11 6 6 5 5 2 4 4 4 4 4 4 4 4 10 10 11 11 6 5 8 14 14 16 10 14 16 11 5
6 8 11 13 13 12 12 11 12 14 12 11 10 12 14 10 5 3 3 3 4 4 3 4 4 4 3 4 4 5 5 9 8 7 7 6 9 9 8 7 9 7 5
4 7 11 11 12 12 12 12 12 13 14 12 10 8 5 9 11 8 5 6 5 5 4 4 3 3 3 5 9 7 4 5 8 7 2 2 2 3 3 5 7 7 8
8 10 12 14 15 15 15 15 12 13 15 15 11 10 8 4 4 4 5 8 8 10 7 9 5 4 11 11 13 12 12 14 14 2 3 4 4 5 6 6 6 6 9
Wind_Direction
188 113 100 63 50 31 47 45 51 21 39 25 12 12 7 3 13 13 17 15 12 12 15 13 3 5 340 321 311 339 336 318 323 346 305 278 225 237 234 211 217 213 213
59 49 93 78 54 48 48 59 53 43 27 31 1 7 336 339 357 10 11 13 15 14 17 8 5 357 358 356 359 342 304 274 323 293 161 285 295 287 241 210 210 218 213
81 32 63 96 74 52 35 58 62 55 34 45 28 356 355 353 8 11 10 3 12 12 16 12 9 2 353 359 349 354 328 287 264 193 243 283 237 344 265 239 220 214 208
83 57 56 96 101 60 47 65 71 50 40 48 47 35 20 10 340 343 349 358 8 8 10 9 12 8 1 355 342 348 327 331 280 271 217 222 240 239 296 313 286 250 219
106 65 75 123 75 62 59 61 73 61 34 50 61 49 32 342 320 337 347 345 0 4 3 3 7 6 358 351 351 1 355 338 340 273 257 236 217 210 213 265 276 324 272
84 73 73 98 92 15 25 56 74 65 37 44 49 46 40 11 10 358 355 351 350 353 358 3 6 3 2 357 5 358 354 346 341 329 321 249 250 239 145 235 307 298 303
106 84 85 41 4 49 8 104 88 78 57 55 57 37 33 27 12 358 350 354 350 352 351 1 2 3 0 16 1 354 352 347 337 338 327 330 271 245 240 224 249 258 295
129 121 151 147 299 27 198 230 133 129 87 60 52 32 27 26 3 350 343 340 330 330 340 355 5 6 1 22 7 352 348 342 337 335 331 330 327 339 240 234 237 257 246
163 160 191 202 271 300 246 236 193 167 126 90 87 38 24 18 354 350 352 333 334 341 342 350 354 10 5 7 6 347 341 341 336 330 335 331 332 316 332 296 231 240 252
189 198 195 211 226 217 226 225 226 199 186 154 110 98 42 9 345 350 343 339 336 338 335 340 349 353 17 15 9 346 341 343 337 333 330 336 346 341 335 333 347 267 235
205 211 221 229 228 231 223 218 216 210 214 199 193 190 207 273 318 328 319 320 329 333 330 334 343 345 358 12 2 341 342 342 338 335 336 336 353 349 353 348 358 357 351
213 223 227 229 227 230 227 214 219 213 214 210 201 214 221 237 273 296 297 305 312 326 328 341 341 339 334 17 5 339 334 337 337 332 334 338 346 350 355 360 344 347 342
237 240 246 238 232 228 227 228 232 229 211 201 207 220 232 242 252 269 281 290 303 313 315 327 330 324 319 336 14 343 329 324 327 327 330 326 346 352 358 357 359 345 341
238 238 252 256 252 241 234 237 242 225 211 203 208 220 230 237 239 240 257 278 297 300 300 306 304 314 315 312 14 345 334 318 331 329 331 347 352 18 14 1 355 343 334
268 278 268 264 252 241 248 250 245 242 212 211 210 220 224 233 235 228 239 260 280 286 293 297 297 298 310 299 327 346 327 318 327 325 332 347 11 23 18 6 349 342 334
32 23 13 349 325 297 282 261 249 242 219 222 221 220 220 225 219 216 230 232 246 260 269 293 289 301 271 224 260 308 307 317 320 327 326 333 351 2 356 354 343 332 332
359 347 338 332 329 318 300 286 275 273 257 235 228 223 219 219 213 212 214 229 238 217 251 266 278 267 215 218 237 294 296 302 306 312 310 321 333 320 342 339 326 320 311
336 326 315 311 304 285 285 272 271 265 259 258 248 237 228 216 208 207 217 219 218 222 234 250 260 222 221 210 228 259 299 291 293 297 298 297 323 325 334 332 328 325 321
302 286 278 275 278 285 287 285 287 282 279 274 262 248 226 218 208 211 214 218 211 226 232 232 250 220 232 214 192 202 255 273 285 288 290 305 322 317 331 323 322 319 318
12 9 359 346 339 336 329 316 304 292 285 280 278 263 237 217 213 209 207 209 215 222 222 246 237 230 234 227 216 206 208 252 267 271 287 332 311 319 319 317 317 313 314
7 3 2 356 350 357 353 352 346 343 326 312 299 277 246 227 212 207 212 224 207 224 224 236 248 237 233 233 228 225 206 230 234 246 256 252 282 300 304 287 290 295 298
5 5 2 357 354 354 351 347 344 334 331 332 311 290 253 226 226 231 239 233 213 211 225 240 251 248 245 231 235 227 234 227 224 241 245 251 259 266 282 297 284 293 284
358 356 353 344 344 347 347 339 332 334 334 337 339 328 313 290 274 253 239 191 274 255 244 230 245 255 258 247 252 256 254 250 248 237 245 255 266 279 290 278 279 287 278
349 348 345 339 332 333 327 321 323 326 325 332 346 351 330 317 321 8 339 311 262 244 250 251 249 239 248 255 252 247 257 264 261 251 258 254 254 261 268 283 284 277 260
336 334 331 318 310 315 313 309 315 324 323 318 315 323 344 350 345 342 333 313 285 247 242 251 238 232 244 245 232 224 235 237 244 254 235 239 240 244 252 255 261 270 279
333 332 328 320 317 317 316 314 319 319 316 310 311 311 303 289 275 276 287 281 257 279 263 243 214 253 243 254 261 261 262 265 263 186 223 254 246 252 270 267 265 257 263